{"data":{"norad_id":56889,"epoch":"2026-09-19T22:50:32.220384Z","epoch_age_seconds":164904,"freshness":"FRESH","line1":"1 56889U 23083P   26262.95176181  .00000073  00000+0  12205-4 0  9991","line2":"2 56889  43.0040  67.8079 0001735 265.2292  94.8361 15.27574427181331","mean_motion":15.27574427,"eccentricity":0.0001735,"inclination_deg":43.004,"raan_deg":67.8079,"arg_perigee_deg":265.2292,"mean_anomaly_deg":94.8361,"bstar":1.2205e-5,"rev_number":18133,"period_min":94.267092623959,"perigee_km":481.8753649743,"apogee_km":484.25620234023,"semimajor_km":6861.2027836573,"source":"CELESTRAK","updated_at":"2026-09-21T09:00:33.521994Z"}}